Terminal Aerodrome Forecast
Issued by NWS Des Moines, IA

Home | Current Version | Previous Version | Text Only | Print | Product List | Glossary On
Versions: 1 2 3 4 5 6 7 8 9 10 11 12 13 14 15 16 17 18 19 20 21 22 23 24 25 26 27 28 29 30 31 32 33 34
000
FTUS43 KDMX 030549
TAFALO
TAF
KALO 030549Z 0306/0406 18006KT P6SM OVC060
     FM030800 16014KT 5SM -FZDZ OVC015
     FM031100 15016G22KT 3SM -SN OVC010
     FM031400 19014KT 5SM -FZDZ OVC008
     FM031700 29017G24KT 5SM BLSN OVC013
     FM032000 32020G30KT 4SM BLSN OVC025
     FM040200 30016G25KT P6SM BKN080=

USA.gov is the U.S. government's official web portal to all federal, state and local government web resources and services.